Location: Hradec Kralove
(50.2170°N, 15.8330°E)
Time: 10:28:33
(UTC+01:00)

ISS - Pass Details

Date: 23 February 2026
Orbit: 416 x 426 km, 51.6° (Epoch: 9 March)

Event Time Altitude Azimuth Distance (km) Brightness Sun altitude
Exits shadow 04:16:19 30° 73° (ENE) 771 -1.9 -25.6°
Drops below altitude 10° 04:18:10 10° 75° (ENE) 1,496 0.1 -25.3°
Sets 04:20:16 0° 77° (ENE) 2,360 1.5 -25.0°
